Time,TemperatureF,DewpointF,PressureIn,WindDirection,WindDirectionDegrees,WindSpeedMPH,WindSpeedGustMPH,Humidity,HourlyPrecipIn,Conditions,Clouds,dailyrainin,SoftwareType,DateUTC
2014-01-26 00:43:00,14.0,-99.9,29.49,North,-999,-999.0,-999.0,-999,0.00,,,-99.99,,2014-01-26 05:43:00,
2014-01-26 00:52:00,20.0,-99.9,29.53,North,-999,-999.0,-999.0,-999,-99.99,,,-99.99,,2014-01-26 05:52:00,
2014-01-26 01:43:00,20.0,-99.9,29.53,North,-999,-999.0,-999.0,-999,-99.99,,,-99.99,,2014-01-26 06:43:00,
2014-01-26 01:52:00,20.0,-99.9,29.58,North,-999,-999.0,-999.0,-999,0.00,,,-99.99,,2014-01-26 06:52:00,
2014-01-26 02:42:00,20.0,-99.9,29.58,North,-999,-999.0,-999.0,-999,0.00,,,-99.99,,2014-01-26 07:42:00,
2014-01-26 02:52:00,19.0,-99.9,29.65,North,-999,-999.0,-999.0,-999,0.00,,,-99.99,,2014-01-26 07:52:00,
2014-01-26 03:42:00,19.0,-99.9,29.65,North,-999,-999.0,-999.0,-999,0.00,,,-99.99,,2014-01-26 08:42:00,
2014-01-26 03:52:00,17.0,-99.9,29.70,North,-999,-999.0,-999.0,-999,0.00,,,-99.99,,2014-01-26 08:52:00,
2014-01-26 04:43:00,17.0,-99.9,29.70,North,-999,-999.0,-999.0,-999,0.00,,,-99.99,,2014-01-26 09:43:00,
2014-01-26 04:52:00,16.0,-99.9,29.74,North,-999,-999.0,-999.0,-999,0.00,,,-99.99,,2014-01-26 09:52:00,
2014-01-26 05:43:00,16.0,-99.9,29.74,North,-999,-999.0,-999.0,-999,0.00,,,-99.99,,2014-01-26 10:43:00,
2014-01-26 05:52:00,14.0,-99.9,29.77,North,-999,-999.0,-999.0,-999,0.00,,,-99.99,,2014-01-26 10:52:00,
2014-01-26 06:42:00,14.0,-99.9,29.77,North,-999,-999.0,-999.0,-999,0.00,,,-99.99,,2014-01-26 11:42:00,
2014-01-26 06:52:00,13.0,-99.9,29.82,North,-999,-999.0,-999.0,-999,0.00,,,-99.99,,2014-01-26 11:52:00,
2014-01-26 07:42:00,13.0,-99.9,29.82,North,-999,-999.0,-999.0,-999,0.00,,,-99.99,,2014-01-26 12:42:00,
2014-01-26 07:52:00,12.0,-99.9,29.86,North,-999,-999.0,-999.0,-999,0.00,,,-99.99,,2014-01-26 12:52:00,
2014-01-26 08:42:00,12.0,-99.9,29.86,North,-999,-999.0,-999.0,-999,0.00,,,-99.99,,2014-01-26 13:42:00,
2014-01-26 08:52:00,15.0,-99.9,29.90,North,-999,-999.0,-999.0,-999,0.00,,,-99.99,,2014-01-26 13:52:00,
2014-01-26 09:42:00,15.0,-99.9,29.90,North,-999,-999.0,-999.0,-999,0.00,,,-99.99,,2014-01-26 14:42:00,
2014-01-26 09:52:00,16.0,-99.9,29.91,North,-999,-999.0,-999.0,-999,0.00,,,-99.99,,2014-01-26 14:52:00,
2014-01-26 10:43:00,16.0,-99.9,29.91,North,-999,-999.0,-999.0,-999,0.00,,,-99.99,,2014-01-26 15:43:00,
2014-01-26 10:52:00,17.0,-99.9,29.91,North,-999,-999.0,-999.0,-999,0.00,,,-99.99,,2014-01-26 15:52:00,
2014-01-26 11:43:00,17.0,-99.9,29.91,North,-999,-999.0,-999.0,-999,0.00,,,-99.99,,2014-01-26 16:43:00,
2014-01-26 11:52:00,18.0,-99.9,29.88,North,-999,-999.0,-999.0,-999,0.00,,,-99.99,,2014-01-26 16:52:00,
2014-01-26 12:43:00,18.0,-99.9,29.88,North,-999,-999.0,-999.0,-999,0.00,,,-99.99,,2014-01-26 17:43:00,
2014-01-26 12:52:00,20.0,-99.9,29.85,North,-999,-999.0,-999.0,-999,0.00,,,-99.99,,2014-01-26 17:52:00,
2014-01-26 13:42:00,20.0,-99.9,29.85,North,-999,-999.0,-999.0,-999,0.00,,,-99.99,,2014-01-26 18:42:00,
2014-01-26 13:52:00,20.0,-99.9,29.86,North,-999,-999.0,-999.0,-999,0.00,,,-99.99,,2014-01-26 18:52:00,
2014-01-26 14:42:00,20.0,-99.9,29.86,North,-999,-999.0,-999.0,-999,0.00,,,-99.99,,2014-01-26 19:42:00,
2014-01-26 14:52:00,19.0,-99.9,29.88,North,-999,-999.0,-999.0,-999,0.00,,,-99.99,,2014-01-26 19:52:00,
2014-01-26 15:42:00,19.0,-99.9,29.88,North,-999,-999.0,-999.0,-999,0.00,,,-99.99,,2014-01-26 20:42:00,
2014-01-26 15:52:00,17.0,-99.9,29.89,North,-999,-999.0,-999.0,-999,0.00,,,-99.99,,2014-01-26 20:52:00,
2014-01-26 16:43:00,17.0,-99.9,29.89,North,-999,-999.0,-999.0,-999,0.00,,,-99.99,,2014-01-26 21:43:00,
2014-01-26 16:52:00,18.0,-99.9,29.87,North,-999,-999.0,-999.0,-999,0.00,,,-99.99,,2014-01-26 21:52:00,
2014-01-26 17:43:00,18.0,-99.9,29.87,North,-999,-999.0,-999.0,-999,0.00,,,-99.99,,2014-01-26 22:43:00,
2014-01-26 17:52:00,18.0,-99.9,29.88,North,-999,-999.0,-999.0,-999,0.00,,,-99.99,,2014-01-26 22:52:00,
2014-01-26 18:42:00,18.0,-99.9,29.88,North,-999,-999.0,-999.0,-999,0.00,,,-99.99,,2014-01-26 23:42:00,
2014-01-26 18:52:00,19.0,-99.9,29.88,North,-999,-999.0,-999.0,-999,0.00,,,-99.99,,2014-01-26 23:52:00,
2014-01-26 19:42:00,19.0,-99.9,29.88,North,-999,-999.0,-999.0,-999,0.00,,,-99.99,,2014-01-27 00:42:00,
2014-01-26 19:52:00,20.0,-99.9,29.88,North,-999,-999.0,-999.0,-999,0.00,,,-99.99,,2014-01-27 00:52:00,
2014-01-26 20:42:00,20.0,-99.9,29.88,North,-999,-999.0,-999.0,-999,0.00,,,-99.99,,2014-01-27 01:42:00,
2014-01-26 20:52:00,21.0,-99.9,29.87,North,-999,-999.0,-999.0,-999,0.00,,,-99.99,,2014-01-27 01:52:00,
2014-01-26 21:42:00,21.0,-99.9,29.87,North,-999,-999.0,-999.0,-999,0.00,,,-99.99,,2014-01-27 02:42:00,
2014-01-26 21:52:00,22.0,-99.9,29.87,North,-999,-999.0,-999.0,-999,0.00,,,-99.99,,2014-01-27 02:52:00,
2014-01-26 22:43:00,22.0,-99.9,29.87,North,-999,-999.0,-999.0,-999,0.00,,,-99.99,,2014-01-27 03:43:00,
2014-01-26 22:52:00,22.0,-99.9,29.84,North,-999,-999.0,-999.0,-999,0.00,,,-99.99,,2014-01-27 03:52:00,
2014-01-26 23:43:00,22.0,-99.9,29.84,North,-999,-999.0,-999.0,-999,0.00,,,-99.99,,2014-01-27 04:43:00,